Tracking 29059 objects as of 19-Jun-2024
HD Live streaming from Space Station
objects crossing your sky now

ONEWEB-0319

Track ONEWEB-0319 now!
10-day predictions
ONEWEB-0319 is classified as:


NORAD ID: 49105
Int'l Code: 2021-075AG
Perigee: 1,199.7 km
Apogee: 1,202.1 km
Inclination: 87.9 °
Period: 109.3 minutes
Semi major axis: 7571 km
RCS: Unknown
Launch date: August 21, 2021
Source: United Kingdom (UK)
Launch site: TYURATAM MISSILE AND SPACE COMPLEX (TTMTR)
Your satellite tracking list
Your tracking list is empty




NASA's NSSDC Master Catalog

Two Line Element Set (TLE):
1 49105U 21075AG  24170.86970242  .00000038  00000-0  63958-4 0  9992
2 49105  87.9167 150.8728 0001575  97.6467 262.4844 13.17647187137698
Source of the keplerian elements: AFSPC